{"data":{"norad_id":54255,"epoch":"2026-09-21T23:19:29.555040Z","epoch_age_seconds":35030,"freshness":"FRESH","line1":"1 54255U 22155E   26264.97186985  .00050866  00000+0  44686-3 0  9994","line2":"2 54255  97.6311  55.8598 0002820  14.3488 345.7853 15.68665687214831","mean_motion":15.68665687,"eccentricity":0.000282,"inclination_deg":97.6311,"raan_deg":55.8598,"arg_perigee_deg":14.3488,"mean_anomaly_deg":345.7853,"bstar":0.00044686,"rev_number":21483,"period_min":91.797762387085,"perigee_km":360.8159114919,"apogee_km":364.6177530533,"semimajor_km":6740.8538322726,"source":"CELESTRAK","updated_at":"2026-09-22T09:00:25.144063Z"}}